Location: Follega
(52.8850°N, 5.7362°E)
Time: 22:21:27
(UTC+00:00)

Cosmos 2297 Rocket - Visible Passes

Search period start: 01 October 2020 00:00
Search period end: 11 October 2020 00:00
Orbit: 838 x 845 km, 71.0° (Epoch: 01 October)

Date Brightness Start Highest point End Pass type
(mag) Time Alt. Az. Time Alt. Az. Time Alt. Az.
01 Oct 4.5 19:23:02 10° NNW 19:25:46 13° NNE 19:28:29 10° NE visible
01 Oct 3.8 21:07:02 10° NNW 21:10:58 26° NNE 21:10:58 26° NNE visible
01 Oct 4.3 22:50:54 10° NNW 22:52:45 22° NNW 22:52:45 22° NNW visible
02 Oct 4.4 19:07:53 10° NNW 19:10:34 13° N 19:13:15 10° NE visible
02 Oct 3.7 20:51:55 10° NNW 20:55:59 26° NNE 20:55:59 26° NNE visible
02 Oct 4.3 22:35:46 10° NNW 22:37:46 23° NNW 22:37:46 23° NNW visible
03 Oct 4.4 18:52:44 10° NNW 18:55:22 13° N 18:58:00 10° NE visible
03 Oct 3.7 20:36:48 10° NNW 20:41:01 26° NNE 20:41:01 26° NNE visible
03 Oct 4.2 22:20:38 10° NNW 22:22:49 24° NNW 22:22:49 24° NNW visible
04 Oct 4.4 18:37:34 10° NNW 18:40:10 13° N 18:42:45 10° NE visible
04 Oct 3.7 20:21:40 10° NNW 20:26:05 25° NNE 20:26:05 25° NNE visible
04 Oct 4.1 22:05:30 10° NNW 22:07:52 26° NNW 22:07:52 26° NNW visible
05 Oct 4.4 18:22:25 10° NNW 18:24:58 13° N 18:27:31 10° NE visible
05 Oct 3.7 20:06:34 10° NNW 20:11:09 25° NE 20:11:09 25° NE visible
05 Oct 4.0 21:50:23 10° NNW 21:52:57 28° NNW 21:52:57 28° NNW visible
06 Oct 4.4 18:07:15 10° NNW 18:09:46 13° N 18:12:17 10° NE visible
06 Oct 3.6 19:51:26 10° NNW 19:56:01 24° NE 19:56:15 24° NE visible
06 Oct 3.8 21:35:15 10° NNW 21:38:02 30° NNW 21:38:02 30° NNW visible
07 Oct 4.4 17:52:05 10° NNW 17:54:34 13° N 17:57:02 10° NNE visible
07 Oct 3.6 19:36:19 10° NNW 19:40:51 24° NE 19:41:21 23° NE visible
07 Oct 3.7 21:20:07 10° NNW 21:23:09 33° NNW 21:23:09 33° NNW visible
08 Oct 4.3 17:36:55 10° NNW 17:39:22 13° N 17:41:48 10° NNE visible
08 Oct 3.6 19:21:12 10° NNW 19:25:40 23° NNE 19:26:29 22° NE visible
08 Oct 3.5 21:04:59 10° NNW 21:08:17 36° NNW 21:08:17 36° NNW visible
08 Oct 4.9 22:49:47 10° NW 22:50:04 11° NW 22:50:04 11° NW visible
09 Oct 4.3 17:21:45 10° NNW 17:24:10 13° N 17:26:35 10° NNE visible
09 Oct 3.6 19:06:05 10° NNW 19:10:30 22° NNE 19:11:38 21° NE visible
09 Oct 3.3 20:49:52 10° NNW 20:53:26 39° NNW 20:53:26 39° NNW visible
09 Oct 4.9 22:34:36 10° NW 22:35:13 13° NW 22:35:13 13° NW visible
10 Oct 3.7 18:50:58 10° NNW 18:55:19 22° NNE 18:56:48 20° NE visible
10 Oct 3.1 20:34:44 10° NNW 20:38:36 43° NNW 20:38:36 43° NNW visible
10 Oct 4.8 22:19:25 10° NW 22:20:24 14° NW 22:20:24 14° NW visible
